Погода в Тлянче-Тамаке

Россия / Республика Татарстан     55°28′25″N   52°37′36″E
темп.,
°C
ветер,
м/с
пор.,
м/с
влажн.,
%
обл.,
%
осадки,
мм/ч
давл.,
гПа
погр.,
м
8 декабря, ср
ср800:00−9юв51067100 0.0 1036285
03:00−8юв51164100 0.0 1035309
06:00−8ююв61364100 0.0 1033336
09:00−6ююв51465100 0.1 1032405
12:00−5ю61682100 1.2 1031514
15:00−3ю61476100 1.6 1030445
18:00−3ю51286100 0.0 1030366
21:00−3ю51289100 0.0 1030364
9 декабря, чт
чт900:00−3ю51287100 0.0 1030354
03:00−3ююв41188100 0.0 1029311
06:00−4ююв41088100 0.0 1029285
09:00−4ююв51184100 0.0 1029324
12:00−3ююв41177100 0.0 1027372
15:00−3ююв51177100 0.0 1026321
18:00−3ююв4981100 0.0 1026295
21:00−3ююв2684100 0.0 1025165
10 декабря, пт
пт1000:00−3ю2685100 0.0 1025190
03:00−4ю1189100 0.0 102421
06:00−5з1193100 0.0 102510
09:00−5с2494100 0.0 1026103
12:00−5с479386 0.0 1026269
15:00−7ссв5109164 0.0 1028352
18:00−9ссв512825 0.0 1030357
21:00−10ссв512835 0.0 1031350
11 декабря, сб
сб1100:00−12ссв512835 0.0 1033349
03:00−12ссв513825 0.0 1034358
06:00−13ссв512835 0.0 1036332
09:00−13ссв410815 0.0 1037275
12:00−11ссв48815 0.0 1038244
15:00−11ссз39865 0.0 1039233
18:00−11ссз38885 0.0 1039218
21:00−11ссз388797 0.0 1040226
12 декабря, вс
вс1200:00−12с3786100 0.0 1042204
03:00−12ссз258699 0.0 1042146
06:00−12сз238628 0.0 1043100
09:00−12ссз23825 0.0 104587
12:00−10ссз12732 0.0 1045117
15:00−11сз11855 0.0 104514
18:00−11з11875 0.0 104614
21:00−12юз118823 0.0 104515